SILO ALERT LOG


Silo ID Alert Type Alert Message Silo Type Points Depth (mm) Strength Temperature (°C) Humidity (%) Height (mm) Volume (㎥) Weight (t) Flag Time
DJSAD16 Humidity 습도센서 측정값이 80% 초과 92 6326 3440 3.6 80.6 1253 124.835 78.921 11 2024-01-14 07:39:32.000
DJSSD11 Temperature 온도센서 측정값이 0도 미만 호퍼 437 7408 154 -4.8 72.4 3821 28.507 15.536 0 2024-01-14 07:39:32.000
DJSSD09 Temperature 온도센서 측정값이 0도 미만 133 3002 3658 -45.4 0 4677 651.012 411.57 11 2024-01-14 07:39:32.000
DJDJD04 Humidity 습도센서 측정값이 80% 초과 277 4213 4440 2.3 82.5 3466 420.031 265.544 11 2024-01-14 07:39:32.000
DJSAD17 Humidity 습도센서 측정값이 80% 초과 449 3111 4742 3.1 81.6 4468 444.948 281.296 0 2024-01-14 07:39:32.000
DJSAD08 Humidity 습도센서 측정값이 80% 초과 568 2320 4913 6.5 84 5259 748.436 473.161 0 2024-01-14 07:39:32.000
DJHNR01 Humidity 습도센서 측정값이 80% 초과 호퍼 471 4315 4904 3.5 99.9 11064 472.262 298.564 13 2024-01-14 07:39:32.000
DJDJD01 Temperature 온도센서 측정값이 0도 미만 304 6793 5937 -1.2 79.6 886 107.351 67.867 11 2024-01-14 07:39:31.000
DJHNR13 Temperature 온도센서 측정값이 0도 미만 호퍼 11 2929 3093 -4 72.2 7450 106.764 67.496 0 2024-01-14 07:39:31.000
DJSAD18 Humidity 습도센서 측정값이 80% 초과 114 1374 5746 3.9 80.8 6205 617.965 390.678 11 2024-01-14 07:39:31.000
DJHNR14 Temperature 온도센서 측정값이 0도 미만 호퍼 41 3037 4407 -4.4 74.4 7342 104.433 66.022 11 2024-01-14 07:39:30.000
DJHNR04 Temperature 온도센서 측정값이 0도 미만 호퍼 0 15500 5014 -1 68.1 -119 0 0 29 2024-01-14 07:39:30.000
DJHNR03 Temperature 온도센서 상태 이상 호퍼 0 15500 0 -999 -999 -119 0 0 31 2024-01-14 07:39:24.000
DJSSD12 Temperature 온도센서 상태 이상 호퍼 0 11350 0 -999 -999 -120 0 0 31 2024-01-14 07:39:24.000
DJHNR12 Temperature 온도센서 측정값이 0도 미만 호퍼 0 10500 0 -3.2 77.7 -120 0 0 31 2024-01-14 07:39:23.000
DJSAD03 Humidity 습도센서 측정값이 80% 초과 445 1687 6190 1.9 84.5 7092 293.605 185.617 0 2024-01-14 06:39:40.000
DJSAD02 Humidity 습도센서 측정값이 80% 초과 378 1133 4263 1.5 86.3 7646 316.542 200.118 11 2024-01-14 06:39:39.000
DJSAD01 Humidity 습도센서 측정값이 80% 초과 489 1462 7311 0.6 86.4 7317 302.912 191.501 0 2024-01-14 06:39:39.000
DJDJD03 Humidity 습도센서 측정값이 80% 초과 59 4321 5154 1.4 82.7 3358 406.862 257.218 0 2024-01-14 06:39:39.000
DJHNR08 Temperature 온도센서 측정값이 0도 미만 376 5443 2225 -0.9 66.5 2236 318.249 201.197 11 2024-01-14 06:39:36.000

[첫 페이지] [9948] [9949] [9950] [9951] 9952 [9953] [9954] [9955] [9956] [마지막 페이지]